Time,TemperatureF,DewpointF,PressureIn,WindDirection,WindDirectionDegrees,WindSpeedMPH,WindSpeedGustMPH,Humidity,HourlyPrecipIn,Conditions,Clouds,dailyrainin,SoftwareType,DateUTC
2013-05-30 00:02:00,70.0,68.0,30.06,WSW,237,1.0,3.0,94,0.00,,,0.33,,2013-05-30 10:02:00,
2013-05-30 00:12:00,70.0,68.0,30.06,WSW,237,1.0,3.0,94,0.00,,,0.33,,2013-05-30 10:12:00,
2013-05-30 00:22:00,69.0,67.0,30.06,WSW,241,1.0,3.0,94,0.00,,,0.32,,2013-05-30 10:22:00,
2013-05-30 00:32:00,69.0,67.0,30.06,WSW,250,1.0,2.0,94,0.00,,,0.32,,2013-05-30 10:32:00,
2013-05-30 00:42:00,69.0,67.0,30.06,WSW,250,1.0,2.0,94,0.00,,,0.32,,2013-05-30 10:42:00,
2013-05-30 00:52:00,69.0,67.0,30.06,WSW,248,1.0,3.0,94,0.00,,,0.32,,2013-05-30 10:52:00,
2013-05-30 01:02:00,69.0,67.0,30.05,SSW,212,2.0,5.0,94,0.00,,,0.32,,2013-05-30 11:02:00,
2013-05-30 01:12:00,69.0,67.0,30.05,SSW,212,2.0,5.0,94,0.00,,,0.32,,2013-05-30 11:12:00,
2013-05-30 01:21:00,70.0,68.0,30.05,SE,132,3.0,4.0,95,0.02,,,0.14,,2013-05-30 11:21:00,
2013-05-30 01:32:00,70.0,68.0,30.04,SSW,210,1.0,3.0,95,0.06,,,0.18,,2013-05-30 11:32:00,
2013-05-30 01:42:00,70.0,68.0,30.04,SSW,210,1.0,3.0,95,0.06,,,0.18,,2013-05-30 11:42:00,
2013-05-30 01:52:00,70.0,68.0,30.04,WSW,249,1.0,3.0,94,0.06,,,0.18,,2013-05-30 11:52:00,
2013-05-30 02:01:00,69.0,67.0,30.03,WSW,249,1.0,3.0,94,0.06,,,0.18,,2013-05-30 12:01:00,
2013-05-30 02:11:00,69.0,67.0,30.03,WSW,249,1.0,3.0,94,0.06,,,0.18,,2013-05-30 12:11:00,
2013-05-30 02:21:00,69.0,68.0,30.03,WSW,247,1.0,3.0,95,0.04,,,0.15,,2013-05-30 12:21:00,
2013-05-30 02:32:00,69.0,68.0,30.02,WSW,246,2.0,3.0,95,0.00,,,0.15,,2013-05-30 12:32:00,
2013-05-30 02:42:00,69.0,68.0,30.02,WSW,246,2.0,3.0,95,0.00,,,0.15,,2013-05-30 12:42:00,
2013-05-30 02:52:00,69.0,68.0,30.02,SW,229,1.0,3.0,95,0.00,,,0.15,,2013-05-30 12:52:00,
2013-05-30 03:01:00,69.0,68.0,30.02,SW,220,1.0,3.0,95,0.00,,,0.15,,2013-05-30 13:01:00,
2013-05-30 03:11:00,69.0,68.0,30.02,SW,220,1.0,3.0,95,0.00,,,0.15,,2013-05-30 13:11:00,
2013-05-30 03:22:00,69.0,68.0,30.02,SE,137,0.0,2.0,95,0.01,,,0.09,,2013-05-30 13:22:00,
2013-05-30 03:32:00,69.0,68.0,30.01,WSW,244,1.0,3.0,95,0.01,,,0.09,,2013-05-30 13:32:00,
2013-05-30 03:41:00,69.0,68.0,30.01,WSW,244,1.0,3.0,95,0.01,,,0.09,,2013-05-30 13:41:00,
2013-05-30 03:52:00,69.0,68.0,30.02,SW,233,1.0,4.0,96,0.01,,,0.09,,2013-05-30 13:52:00,
2013-05-30 04:01:00,69.0,68.0,30.02,WSW,247,1.0,4.0,96,0.01,,,0.09,,2013-05-30 14:01:00,
2013-05-30 04:11:00,69.0,68.0,30.02,WSW,247,1.0,4.0,96,0.01,,,0.09,,2013-05-30 14:11:00,
2013-05-30 04:21:00,69.0,68.0,30.01,WSW,255,1.0,3.0,96,0.00,,,0.09,,2013-05-30 14:21:00,
2013-05-30 04:32:00,69.0,68.0,30.01,West,265,1.0,2.0,96,0.00,,,0.09,,2013-05-30 14:32:00,
2013-05-30 04:42:00,69.0,68.0,30.01,West,265,1.0,2.0,96,0.00,,,0.09,,2013-05-30 14:42:00,
2013-05-30 04:52:00,68.0,67.0,30.01,SW,219,4.0,7.0,96,0.00,,,0.09,,2013-05-30 14:52:00,
2013-05-30 05:01:00,68.0,67.0,30.02,WSW,249,1.0,4.0,96,0.00,,,0.09,,2013-05-30 15:01:00,
2013-05-30 05:11:00,68.0,67.0,30.02,WSW,249,1.0,4.0,96,0.00,,,0.09,,2013-05-30 15:11:00,
2013-05-30 05:22:00,68.0,67.0,30.02,West,273,2.0,5.0,96,0.00,,,0.09,,2013-05-30 15:22:00,
2013-05-30 05:33:00,68.0,67.0,30.02,West,276,2.0,5.0,96,0.00,,,0.09,,2013-05-30 15:33:00,
2013-05-30 05:42:00,68.0,67.0,30.02,West,276,2.0,5.0,96,0.00,,,0.09,,2013-05-30 15:42:00,
2013-05-30 05:52:00,68.0,67.0,30.02,WSW,241,1.0,5.0,96,0.00,,,0.09,,2013-05-30 15:52:00,
2013-05-30 06:03:00,68.0,67.0,30.02,WSW,256,1.0,4.0,96,0.00,,,0.09,,2013-05-30 16:03:00,
2013-05-30 06:12:00,68.0,67.0,30.02,WSW,256,1.0,4.0,96,0.00,,,0.09,,2013-05-30 16:12:00,
2013-05-30 06:22:00,68.0,67.0,30.03,WSW,239,2.0,4.0,96,0.00,,,0.09,,2013-05-30 16:22:00,
2013-05-30 06:33:00,68.0,67.0,30.03,SW,233,2.0,4.0,96,0.00,,,0.09,,2013-05-30 16:33:00,
2013-05-30 06:42:00,68.0,67.0,30.03,SW,233,2.0,4.0,96,0.00,,,0.09,,2013-05-30 16:42:00,
2013-05-30 06:52:00,68.0,67.0,30.03,West,262,2.0,4.0,96,0.00,,,0.09,,2013-05-30 16:52:00,
2013-05-30 07:02:00,68.0,67.0,30.03,West,273,1.0,5.0,96,0.00,,,0.09,,2013-05-30 17:02:00,
2013-05-30 07:11:00,68.0,67.0,30.03,West,273,1.0,5.0,96,0.00,,,0.09,,2013-05-30 17:11:00,
2013-05-30 07:22:00,69.0,68.0,30.04,West,261,1.0,3.0,96,0.00,,,0.09,,2013-05-30 17:22:00,
2013-05-30 07:32:00,70.0,69.0,30.04,WSW,242,1.0,4.0,97,0.00,,,0.09,,2013-05-30 17:32:00,
2013-05-30 07:42:00,70.0,69.0,30.04,WSW,242,1.0,4.0,97,0.00,,,0.09,,2013-05-30 17:42:00,
2013-05-30 07:52:00,72.0,71.0,30.04,West,262,1.0,3.0,96,0.00,,,0.09,,2013-05-30 17:52:00,
2013-05-30 08:02:00,73.0,71.0,30.04,West,267,1.0,4.0,95,0.00,,,0.09,,2013-05-30 18:02:00,
2013-05-30 08:11:00,73.0,71.0,30.04,West,267,1.0,4.0,95,0.00,,,0.09,,2013-05-30 18:11:00,
2013-05-30 08:21:00,74.0,72.0,30.04,WNW,290,1.0,3.0,94,0.00,,,0.09,,2013-05-30 18:21:00,
2013-05-30 08:32:00,76.0,74.0,30.05,NNE,32,1.0,4.0,92,0.00,,,0.09,,2013-05-30 18:32:00,
2013-05-30 08:42:00,76.0,74.0,30.05,NNE,32,1.0,4.0,92,0.00,,,0.09,,2013-05-30 18:42:00,
2013-05-30 08:52:00,77.0,73.0,30.04,East,81,1.0,4.0,88,0.00,,,0.09,,2013-05-30 18:52:00,
2013-05-30 09:01:00,78.0,73.0,30.05,North,355,2.0,4.0,86,0.00,,,0.09,,2013-05-30 19:01:00,
2013-05-30 09:11:00,78.0,73.0,30.05,North,355,2.0,4.0,86,0.00,,,0.09,,2013-05-30 19:11:00,
2013-05-30 09:22:00,78.0,72.0,30.05,NE,51,3.0,5.0,82,0.00,,,0.09,,2013-05-30 19:22:00,
2013-05-30 09:32:00,78.0,72.0,30.04,NNE,28,4.0,6.0,81,0.00,,,0.09,,2013-05-30 19:32:00,
2013-05-30 09:42:00,78.0,72.0,30.04,NNE,28,4.0,6.0,81,0.00,,,0.09,,2013-05-30 19:42:00,
2013-05-30 09:52:00,79.0,73.0,30.04,NE,36,2.0,5.0,81,0.00,,,0.09,,2013-05-30 19:52:00,
2013-05-30 10:01:00,79.0,72.0,30.04,ENE,71,2.0,4.0,79,0.00,,,0.09,,2013-05-30 20:01:00,
2013-05-30 10:11:00,79.0,72.0,30.04,ENE,71,2.0,4.0,79,0.00,,,0.09,,2013-05-30 20:11:00,
2013-05-30 10:22:00,80.0,73.0,30.04,NNE,30,3.0,5.0,79,0.00,,,0.09,,2013-05-30 20:22:00,
2013-05-30 10:33:00,80.0,72.0,30.04,NE,43,2.0,6.0,77,0.00,,,0.09,,2013-05-30 20:33:00,
2013-05-30 10:41:00,80.0,72.0,30.04,NE,43,2.0,6.0,77,0.00,,,0.09,,2013-05-30 20:41:00,
2013-05-30 10:52:00,79.0,72.0,30.04,ENE,58,2.0,5.0,78,0.00,,,0.09,,2013-05-30 20:52:00,
2013-05-30 11:01:00,78.0,71.0,30.03,NE,55,3.0,6.0,79,0.00,,,0.09,,2013-05-30 21:01:00,
2013-05-30 11:11:00,78.0,71.0,30.03,NE,55,3.0,6.0,79,0.00,,,0.09,,2013-05-30 21:11:00,
2013-05-30 11:22:00,78.0,71.0,30.03,ENE,62,5.0,6.0,80,0.01,,,0.10,,2013-05-30 21:22:00,
2013-05-30 11:33:00,78.0,72.0,30.03,NE,49,2.0,7.0,81,0.01,,,0.10,,2013-05-30 21:33:00,
2013-05-30 11:42:00,78.0,72.0,30.03,NE,49,2.0,7.0,81,0.01,,,0.10,,2013-05-30 21:42:00,
2013-05-30 11:53:00,78.0,71.0,30.02,NE,39,4.0,7.0,80,0.01,,,0.10,,2013-05-30 21:53:00,
2013-05-30 12:02:00,77.0,70.0,30.02,NE,56,5.0,7.0,79,0.01,,,0.10,,2013-05-30 22:02:00,
2013-05-30 12:12:00,77.0,70.0,30.02,NE,56,5.0,7.0,79,0.01,,,0.10,,2013-05-30 22:12:00,
2013-05-30 12:22:00,78.0,72.0,30.01,ENE,59,3.0,7.0,81,0.00,,,0.10,,2013-05-30 22:22:00,
2013-05-30 12:32:00,78.0,72.0,30.01,ENE,60,3.0,8.0,81,0.00,,,0.10,,2013-05-30 22:32:00,
2013-05-30 12:42:00,78.0,72.0,30.01,ENE,60,3.0,8.0,81,0.00,,,0.10,,2013-05-30 22:42:00,
2013-05-30 12:52:00,77.0,70.0,30.01,NE,56,4.0,9.0,80,0.00,,,0.10,,2013-05-30 22:52:00,
2013-05-30 13:02:00,78.0,72.0,30.00,NE,52,5.0,8.0,81,0.00,,,0.10,,2013-05-30 23:02:00,
2013-05-30 13:11:00,78.0,72.0,30.00,NE,52,5.0,8.0,81,0.00,,,0.10,,2013-05-30 23:11:00,
2013-05-30 13:21:00,78.0,71.0,30.00,NE,45,4.0,6.0,80,0.00,,,0.10,,2013-05-30 23:21:00,
2013-05-30 13:31:00,78.0,72.0,29.99,NE,56,5.0,9.0,82,0.00,,,0.10,,2013-05-30 23:31:00,
2013-05-30 13:41:00,78.0,72.0,29.99,NE,56,5.0,9.0,82,0.00,,,0.10,,2013-05-30 23:41:00,
2013-05-30 13:52:00,77.0,71.0,29.99,ENE,58,4.0,8.0,82,0.00,,,0.10,,2013-05-30 23:52:00,
2013-05-30 14:01:00,77.0,71.0,29.98,ENE,60,4.0,7.0,81,0.00,,,0.10,,2013-05-31 00:01:00,
2013-05-30 14:11:00,77.0,71.0,29.98,ENE,60,4.0,7.0,81,0.00,,,0.10,,2013-05-31 00:11:00,
2013-05-30 14:21:00,77.0,71.0,29.98,ENE,66,5.0,7.0,81,0.00,,,0.10,,2013-05-31 00:21:00,
2013-05-30 14:32:00,77.0,71.0,29.98,ENE,57,5.0,9.0,81,0.00,,,0.10,,2013-05-31 00:32:00,
2013-05-30 14:41:00,77.0,71.0,29.98,ENE,57,5.0,9.0,81,0.00,,,0.10,,2013-05-31 00:41:00,
2013-05-30 14:52:00,77.0,71.0,29.97,ENE,64,5.0,9.0,81,0.00,,,0.10,,2013-05-31 00:52:00,
2013-05-30 15:01:00,77.0,71.0,29.97,ENE,71,6.0,9.0,82,0.00,,,0.10,,2013-05-31 01:01:00,
2013-05-30 15:11:00,77.0,71.0,29.97,ENE,71,6.0,9.0,82,0.00,,,0.10,,2013-05-31 01:11:00,
2013-05-30 15:21:00,77.0,71.0,29.97,ENE,71,6.0,10.0,83,0.00,,,0.10,,2013-05-31 01:21:00,
2013-05-30 15:31:00,77.0,71.0,29.97,East,81,6.0,10.0,82,0.00,,,0.10,,2013-05-31 01:31:00,
2013-05-30 15:42:00,77.0,71.0,29.97,ENE,71,5.0,8.0,82,0.00,,,0.10,,2013-05-31 01:42:00,
2013-05-30 15:52:00,77.0,71.0,29.97,ENE,71,5.0,8.0,82,0.00,,,0.10,,2013-05-31 01:52:00,
2013-05-30 16:02:00,77.0,71.0,29.97,ENE,60,5.0,8.0,81,0.00,,,0.10,,2013-05-31 02:02:00,
2013-05-30 16:11:00,77.0,71.0,29.97,ENE,60,5.0,8.0,81,0.00,,,0.10,,2013-05-31 02:11:00,
2013-05-30 16:21:00,77.0,71.0,29.97,ENE,76,4.0,8.0,82,0.00,,,0.10,,2013-05-31 02:21:00,
2013-05-30 16:31:00,77.0,71.0,29.97,East,91,5.0,8.0,82,0.00,,,0.10,,2013-05-31 02:31:00,
2013-05-30 16:41:00,77.0,71.0,29.97,East,91,5.0,8.0,82,0.00,,,0.10,,2013-05-31 02:41:00,
2013-05-30 16:51:00,77.0,71.0,29.96,ENE,59,5.0,9.0,83,0.00,,,0.10,,2013-05-31 02:51:00,
2013-05-30 17:01:00,76.0,70.0,29.96,ENE,59,5.0,8.0,82,0.00,,,0.10,,2013-05-31 03:01:00,
2013-05-30 17:11:00,76.0,70.0,29.96,ENE,59,5.0,8.0,82,0.00,,,0.10,,2013-05-31 03:11:00,
2013-05-30 17:21:00,76.0,70.0,29.97,ENE,61,5.0,9.0,83,0.00,,,0.10,,2013-05-31 03:21:00,
2013-05-30 17:33:00,76.0,70.0,29.97,NE,56,4.0,7.0,83,0.00,,,0.10,,2013-05-31 03:33:00,
2013-05-30 17:43:00,76.0,70.0,29.97,NE,56,4.0,7.0,83,0.00,,,0.10,,2013-05-31 03:43:00,
2013-05-30 17:53:00,76.0,70.0,29.97,East,85,4.0,7.0,82,0.00,,,0.10,,2013-05-31 03:53:00,
2013-05-30 18:02:00,76.0,70.0,29.98,ENE,71,3.0,7.0,83,0.00,,,0.10,,2013-05-31 04:02:00,
2013-05-30 18:12:00,76.0,70.0,29.98,ENE,71,3.0,7.0,83,0.00,,,0.10,,2013-05-31 04:12:00,
2013-05-30 18:22:00,76.0,69.0,29.98,ENE,76,4.0,6.0,80,0.00,,,0.10,,2013-05-31 04:22:00,
2013-05-30 18:32:00,76.0,70.0,29.98,ENE,66,4.0,7.0,81,0.00,,,0.10,,2013-05-31 04:32:00,
2013-05-30 18:42:00,76.0,70.0,29.98,ENE,66,4.0,7.0,81,0.00,,,0.10,,2013-05-31 04:42:00,
2013-05-30 18:53:00,76.0,70.0,29.99,ENE,67,3.0,6.0,82,0.00,,,0.10,,2013-05-31 04:53:00,
2013-05-30 19:02:00,76.0,70.0,29.99,NE,48,3.0,6.0,83,0.00,,,0.10,,2013-05-31 05:02:00,
2013-05-30 19:12:00,76.0,70.0,29.99,NE,48,3.0,6.0,83,0.00,,,0.10,,2013-05-31 05:12:00,
2013-05-30 19:22:00,76.0,70.0,30.00,ENE,71,2.0,5.0,82,0.00,,,0.10,,2013-05-31 05:22:00,
2013-05-30 19:31:00,76.0,70.0,30.00,NE,51,1.0,4.0,82,0.00,,,0.10,,2013-05-31 05:31:00,
2013-05-30 19:42:00,76.0,70.0,30.00,NE,51,1.0,4.0,82,0.00,,,0.10,,2013-05-31 05:42:00,
2013-05-30 19:52:00,75.0,69.0,30.01,NE,51,0.0,1.0,82,0.00,,,0.10,,2013-05-31 05:52:00,
2013-05-30 20:01:00,75.0,69.0,30.01,NE,47,1.0,2.0,83,0.00,,,0.10,,2013-05-31 06:01:00,
2013-05-30 20:11:00,75.0,69.0,30.01,NE,47,1.0,2.0,83,0.00,,,0.10,,2013-05-31 06:11:00,
2013-05-30 20:21:00,74.0,69.0,30.01,West,274,2.0,3.0,84,0.00,,,0.10,,2013-05-31 06:21:00,
2013-05-30 20:31:00,73.0,68.0,30.02,WSW,257,1.0,4.0,85,0.00,,,0.10,,2013-05-31 06:31:00,
2013-05-30 20:41:00,73.0,68.0,30.02,WSW,257,1.0,4.0,85,0.00,,,0.10,,2013-05-31 06:41:00,
2013-05-30 20:52:00,72.0,68.0,30.02,WSW,255,1.0,4.0,87,0.00,,,0.10,,2013-05-31 06:52:00,
2013-05-30 21:01:00,72.0,68.0,30.03,West,262,1.0,3.0,88,0.00,,,0.10,,2013-05-31 07:01:00,
2013-05-30 21:11:00,72.0,68.0,30.03,West,262,1.0,3.0,88,0.00,,,0.10,,2013-05-31 07:11:00,
2013-05-30 21:21:00,71.0,68.0,30.02,WSW,247,1.0,3.0,89,0.00,,,0.10,,2013-05-31 07:21:00,
2013-05-30 21:32:00,71.0,68.0,30.03,WSW,247,2.0,3.0,89,0.00,,,0.10,,2013-05-31 07:32:00,
2013-05-30 21:41:00,71.0,68.0,30.03,WSW,247,2.0,3.0,89,0.00,,,0.10,,2013-05-31 07:41:00,
2013-05-30 21:52:00,71.0,68.0,30.03,WSW,247,2.0,4.0,90,0.00,,,0.10,,2013-05-31 07:52:00,
2013-05-30 22:01:00,70.0,67.0,30.03,SW,236,2.0,4.0,90,0.00,,,0.10,,2013-05-31 08:01:00,
2013-05-30 22:11:00,70.0,67.0,30.03,SW,236,2.0,4.0,90,0.00,,,0.10,,2013-05-31 08:11:00,
2013-05-30 22:21:00,70.0,67.0,30.03,WSW,250,2.0,4.0,90,0.00,,,0.08,,2013-05-31 08:21:00,
2013-05-30 22:31:00,71.0,68.0,30.03,WSW,253,1.0,3.0,91,0.00,,,0.08,,2013-05-31 08:31:00,
2013-05-30 22:42:00,71.0,68.0,30.03,WSW,253,1.0,3.0,91,0.00,,,0.08,,2013-05-31 08:42:00,
2013-05-30 22:52:00,71.0,68.0,30.03,WSW,246,1.0,3.0,91,0.00,,,0.08,,2013-05-31 08:52:00,
2013-05-30 23:01:00,71.0,68.0,30.03,WSW,249,0.0,2.0,91,0.00,,,0.08,,2013-05-31 09:01:00,
2013-05-30 23:11:00,71.0,68.0,30.03,WSW,249,0.0,2.0,91,0.00,,,0.08,,2013-05-31 09:11:00,
2013-05-30 23:21:00,71.0,68.0,30.03,WSW,254,1.0,2.0,91,0.00,,,0.08,,2013-05-31 09:21:00,
2013-05-30 23:32:00,71.0,68.0,30.03,WNW,285,1.0,3.0,91,0.00,,,0.08,,2013-05-31 09:32:00,
2013-05-30 23:43:00,71.0,68.0,30.03,WNW,285,1.0,3.0,91,0.00,,,0.08,,2013-05-31 09:43:00,
2013-05-30 23:53:00,71.0,68.0,30.03,WSW,242,1.0,3.0,91,0.00,,,0.08,,2013-05-31 09:53:00,